sat.trackr.live / text

‹ back to catalog

ONEWEB-0361

NORAD 49287 · 2021-090J

PAYLOAD ACTIVE UNKNOWN

§ Identity

Operator
Country
UK
Launch date
2021-10-14
Launch site
VOSTO
Launch vehicle
Mass (kg)
RCS (m²)

Purposes: comms

External: N2YO · Heavens-Above · Gunter

§ Orbital elements

Epoch: 2026-09-12T01:00:19.139616Z

Period
109.03 min
Inclination
87.9138°
Eccentricity
0.0001984
Mean motion
13.20773113 rev/d
Perigee alt
1,180.3 km
Apogee alt
1,183.3 km
Semi-major
7,559.9 km
B*
1.9691e-4
RAAN
257.1142°
Arg perigee
93.5187°
Mean anomaly
266.6173°
Rev number
24,176

§ Raw data

ONEWEB-03611 49287U 21090J   26255.04188819  .00000093  00000+0  19691-3 0  99912 49287  87.9138 257.1142 0001984  93.5187 266.6173 13.20773113241764

JSON: /api/v1/satellites/49287 · /tle

For live sub-satellite position, see the globe view (requires WebGL).

§ Visibility from observer

Set your observer location to see the next 7 days of passes ≥ 10°. The values pass through the URL so the page stays shareable.

No JS? Fill the form by hand. The geolocation button needs JavaScript.